• MPC Preparation (Info)

  • MPEC 2017-R02 : 2017 QU34

    The following Minor Planet Electronic Circular may be linked-to from your own Web pages, but must not otherwise be redistributed electronically.

    A form allowing access to any MPEC is at the bottom of this page.


    Read MPEC 2017-R01 Read MPEC 2017-R03


    M.P.E.C. 2017-R02                                Issued 2017 Sept. 1, 02:50 UT
    
         The Minor Planet Electronic Circulars contain information on unusual
             minor planets and routine data on comets.  They are published
        on behalf of Division F of the International Astronomical Union by the
              Minor Planet Center, Smithsonian Astrophysical Observatory,
                              Cambridge, MA 02138, U.S.A.
    
                 Prepared using the Tamkin Foundation Computer Network
    
                                  MPC@CFA.HARVARD.EDU
                URL https://www.minorplanetcenter.net/    ISSN 1523-6714
    
                                       2017 QU34
    
    Observations:
         K17Q34U* C2017 08 28.30888 22 33 36.77 -09 17 29.8          19.7 VqER002G96
         K17Q34U  C2017 08 28.31480 22 33 43.21 -09 17 37.1          20.8 VqER002G96
         K17Q34U  C2017 08 28.32070 22 33 49.60 -09 17 47.1          20.7 VqER002G96
         K17Q34U  C2017 08 28.32661 22 33 55.98 -09 17 55.6          21.1 VqER002G96
         K17Q34U  C2017 08 28.39294822 35 05.46 -09 19 31.7          20.4 GUER002H01
         K17Q34U  C2017 08 28.39943722 35 12.28 -09 19 39.8          21.0 GUER002H01
         K17Q34U  C2017 08 28.40326 22 35 17.08 -09 19 40.2          20.4 VqER002G96
         K17Q34U  C2017 08 28.40392 22 35 17.77 -09 19 40.2          21.0 VqER002G96
         K17Q34U  C2017 08 28.40458 22 35 18.45 -09 19 41.4          20.7 VqER002G96
         K17Q34U  C2017 08 28.40523 22 35 19.14 -09 19 42.1          20.4 VqER002G96
         K17Q34U  C2017 08 28.40855422 35 21.85 -09 19 51.2          21.2 GUER002H01
         K17Q34U  C2017 08 28.41403022 35 27.60 -09 19 57.9          20.3 GUER002H01
         K17Q34U KC2017 08 29.31018 22 48 54.22 -09 35 45.0          21.2 RqER002734
         K17Q34U KC2017 08 29.32046 22 49 00.54 -09 35 52.3          21.3 RqER002734
         K17Q34U KC2017 08 29.33073 22 49 06.92 -09 35 59.0          21.3 RqER002734
         K17Q34U  C2017 08 29.33431922 49 11.42 -09 35 48.6          21.1 GUER002H01
         K17Q34U KC2017 08 29.34178322 49 15.93 -09 35 53.4          21.2 GUER002H01
         K17Q34U  C2017 08 29.34802122 49 19.70 -09 35 58.1          21.3 GUER002H01
         K17Q34U  C2017 08 29.35541022 49 24.16 -09 36 03.1          20.6 GUER002H01
         K17Q34U  C2017 08 31.33667323 04 45.89 -09 51 11.5          22.4 GUER002H01
         K17Q34U  C2017 08 31.34194423 04 47.24 -09 51 13.1          21.6 GUER002H01
         K17Q34U  C2017 08 31.35074423 04 49.46 -09 51 15.1          22.6 GUER002H01
         K17Q34U  C2017 08 31.35726323 04 51.12 -09 51 16.9          22.3 GUER002H01
    
    Observer details:
    734 Farpoint Observatory.  Observer G. Hug.  0.69-m reflector + CCD.
    G96 Mt. Lemmon Survey.  Observer D. C. Fuls.  Measurers E. J. Christensen,
        D. C. Fuls, A. R. Gibbs, A. D. Grauer, J. A. Johnson, R. A. Kowalski,
        S. M. Larson, G. J. Leonard, R. G. Matheny, R. L. Seaman, F. C. Shelly.
        1.5-m reflector + 10K CCD.
    H01 Magdalena Ridge Observatory, Socorro.  Observers W. H. Ryan, E. V. Ryan.
        Measurer W. H. Ryan.  2.4-m f/8.9 reflector + CCD.
    
    Orbital elements:
    2017 QU34                                                Earth MOID = 0.0034 AU
    Epoch 2017 Sept. 4.0 TT = JDT 2458000.5                 MPC
    M  14.75841              (2000.0)            P               Q
    n   0.29951263     Peri.  120.05537     +0.08751394     +0.99589400
    a   2.2123778      Node   154.93370     -0.93175250     +0.09005814
    e   0.6212537      Incl.    3.13388     -0.35238984     +0.00920206
    P   3.29           H   28.3           G   0.15           U   7
    Residuals in seconds of arc
    170828 G96  0.2-  0.8-    170828 G96  0.1-  0.0     170829 H01  0.4-  0.3+
    170828 G96  0.0   0.8+    170828 G96  0.1+  0.1+    170829 H01  0.2-  0.1-
    170828 G96  0.1+  0.4-    170828 H01  0.1-  0.1+    170829 H01  0.0   0.0
    170828 G96  0.2+  0.2-    170828 H01  0.0   0.1+    170831 H01  0.0   0.1+
    170828 H01  0.0   0.0     170829 734  0.3+  0.0     170831 H01  0.1+  0.1-
    170828 H01  0.1-  0.2+    170829 734  0.0   0.1-    170831 H01  0.1-  0.1+
    170828 G96  0.0   0.5-    170829 734  0.8+  0.3+    170831 H01  0.0   0.2-
    170828 G96  0.0   0.4+    170829 H01  0.5-  0.2-
    
    Ephemeris:
    2017 QU34                a,e,i = 2.21, 0.62, 3                   q = 0.8379
    Date    TT    R. A. (2000) Decl.     Delta      r     Elong.  Phase     V
    2017 08 02    11 35 31.1 +10 42 44   0.2044  0.8710    41.0   130.1    30.3
    ...
    2017 08 17    11 58 30.3 +10 27 08   0.07143 0.9531    32.7   145.0    30.0
    ...
    2017 08 25    16 15 13.6 +05 50 47   0.0076311.0107    88.9    90.6    20.9
    ...
    2017 08 31    23 02 55.1 -09 47 27   0.04906 1.0582   173.5     6.2    22.4
    2017 09 01    23 07 54.2 -09 52 09   0.05759 1.0664   173.1     6.5    22.7
    2017 09 02    23 11 35.2 -09 55 23   0.06617 1.0747   173.0     6.6    23.1
    ...
    2017 09 08    23 22 07.6 -10 02 12   0.1186  1.1256   174.2     5.2    24.4
    ...
    2017 09 16    23 26 37.1 -09 58 17   0.1920  1.1960   172.5     6.3    25.6
    ...
    2017 10 01    23 30 39.2 -09 24 12   0.3453  1.3323   160.9    14.2    27.4
    
    A. U. Tomatic                (C) Copyright 2017 MPC           M.P.E.C. 2017-R02
    

    Read MPEC 2017-R01 Read MPEC 2017-R03


    MPEC number:

    Enter an MPEC number in one of the following forms:

    • 1997-B01 (the full form)
    • J97B01 (the packed version of the full form)
    • B01 (the abbreviated form)